Location: LDNL
(36.4545°S, 141.6685°E)
Time: 22:14:09
(UTC+11:00)

Courier 1B Rocket - Pass Details

Date: 02 February 2023
Orbit: 920 x 1202 km, 28.2° (Epoch: 26 March)

Event Time Altitude Azimuth Distance (km) Brightness Sun altitude
Rises 05:21:59 0° 320° (NW) 4,035 - -16.3°
Reaches altitude 10° 05:25:23 10° 333° (NNW) 3,104 - -15.8°
Exits shadow 05:26:35 14° 340° (NNW) 2,823 6.9 -15.6°
Maximum altitude 05:31:19 24° 23° (NNE) 2,254 6.8 -14.8°
Drops below altitude 10° 05:37:17 10° 73° (ENE) 3,135 8.2 -13.8°
Sets 05:40:44 0° 86° (E) 4,085 9.2 -13.2°
